| time (UTC) | temp F | wind direction | speed MPH | gust MPH | rain 1hr in | rain 24hr in | rain mn in | humidity % | barometer mb |
| 20260503013434 | 47 | 13 | 1.0 | 5.0 | 0.00 | 0.00 | 0.00 | 65 | 1041.9 |
| 20260503012927 | 47 | 287 | 1.0 | 5.0 | 0.00 | 0.00 | 0.00 | 64 | 1041.9 |
| 20260503012903 | 48 | 151 | 1.0 | 6.0 | 0.00 | 0.00 | 0.00 | 64 | 1041.9 |
| 20260503011915 | 48 | 244 | 1.0 | 6.0 | 0.00 | 0.00 | 0.00 | 63 | 1041.7 |
| 20260503011631 | 48 | 40 | 1.0 | 4.0 | 0.00 | 0.00 | 0.00 | 63 | 1041.7 |
| 20260503010859 | 48 | 42 | 1.0 | 4.0 | 0.00 | 0.00 | 0.00 | 62 | 1041.7 |
| 20260503010357 | 48 | 81 | 0.0 | 4.0 | 0.00 | 0.00 | 0.00 | 63 | 1041.5 |
| 20260503005852 | 49 | 342 | 1.0 | 4.0 | 0.00 | 0.00 | 0.00 | 62 | 1041.5 |
| 20260503005347 | 49 | 101 | 1.0 | 5.0 | 0.00 | 0.00 | 0.00 | 61 | 1041.5 |
| 20260503004839 | 49 | 52 | 1.0 | 6.0 | 0.00 | 0.00 | 0.00 | 61 | 1041.3 |
| 20260503004334 | 49 | 248 | 1.0 | 6.0 | 0.00 | 0.00 | 0.00 | 61 | 1041.3 |
| 20260503004051 | 49 | 271 | 0.0 | 3.0 | 0.00 | 0.00 | 0.00 | 61 | 1041.3 |
| 20260503003315 | 50 | 134 | 1.0 | 3.0 | 0.00 | 0.00 | 0.00 | 59 | 1041.2 |
| 20260503002816 | 50 | 11 | 1.0 | 4.0 | 0.00 | 0.00 | 0.00 | 59 | 1041.2 |
| 20260503002310 | 50 | 227 | 1.0 | 4.0 | 0.00 | 0.00 | 0.00 | 59 | 1041.2 |
| 20260503001803 | 50 | 304 | 1.0 | 4.0 | 0.00 | 0.00 | 0.00 | 60 | 1041.0 |
| 20260503001258 | 50 | 134 | 0.0 | 2.0 | 0.00 | 0.00 | 0.00 | 61 | 1041.0 |
| 20260503000751 | 50 | 112 | 0.0 | 2.0 | 0.00 | 0.00 | 0.00 | 59 | 1041.0 |
| 20260503000247 | 51 | 250 | 0.0 | 6.0 | 0.00 | 0.00 | 0.00 | 58 | 1040.9 |
| 20260502235735 | 51 | 103 | 1.0 | 6.0 | 0.00 | 0.00 | 0.00 | 60 | 1040.9 |
| 20260502235233 | 51 | 250 | 1.0 | 3.0 | 0.00 | 0.00 | 0.00 | 59 | 1040.9 |
| 20260502234727 | 51 | 71 | 1.0 | 4.0 | 0.00 | 0.00 | 0.00 | 56 | 1040.7 |
| 20260502234221 | 51 | 263 | 0.0 | 4.0 | 0.00 | 0.00 | 0.00 | 56 | 1040.7 |
| 20260502233716 | 52 | 239 | 1.0 | 3.0 | 0.00 | 0.00 | 0.00 | 56 | 1040.7 |
| 20260502233433 | 52 | 277 | 1.0 | 3.0 | 0.00 | 0.00 | 0.00 | 57 | 1040.6 |
| 20260502232703 | 52 | 340 | 0.0 | 3.0 | 0.00 | 0.00 | 0.00 | 55 | 1040.6 |
| 20260502232153 | 52 | 144 | 1.0 | 4.0 | 0.00 | 0.00 | 0.00 | 56 | 1040.6 |
| 20260502231651 | 53 | 292 | 1.0 | 8.0 | 0.00 | 0.00 | 0.00 | 54 | 1040.4 |
| 20260502231410 | 53 | 265 | 1.0 | 8.0 | 0.00 | 0.00 | 0.00 | 54 | 1040.4 |
| 20260502230640 | 53 | 279 | 1.0 | 4.0 | 0.00 | 0.00 | 0.00 | 55 | 1040.4 |
| 20260502230353 | 53 | 226 | 1.0 | 4.0 | 0.00 | 0.00 | 0.00 | 52 | 1040.3 |
| 20260502225627 | 54 | 248 | 0.0 | 3.0 | 0.00 | 0.00 | 0.00 | 52 | 1040.3 |
| 20260502225121 | 54 | 291 | 1.0 | 4.0 | 0.00 | 0.00 | 0.00 | 52 | 1040.3 |
| 20260502224611 | 54 | 96 | 1.0 | 4.0 | 0.00 | 0.00 | 0.00 | 51 | 1040.3 |
| 20260502224107 | 54 | 297 | 1.0 | 4.0 | 0.00 | 0.00 | 0.00 | 50 | 1040.3 |
| 20260502223603 | 54 | 259 | 1.0 | 4.0 | 0.00 | 0.00 | 0.00 | 51 | 1040.3 |
| 20260502223049 | 54 | 250 | 1.0 | 3.0 | 0.00 | 0.00 | 0.00 | 50 | 1040.3 |
| 20260502222539 | 54 | 140 | 1.0 | 3.0 | 0.00 | 0.00 | 0.00 | 51 | 1040.3 |
| 20260502222029 | 54 | 36 | 1.0 | 3.0 | 0.00 | 0.00 | 0.00 | 51 | 1040.3 |
| 20260502221527 | 54 | 94 | 0.0 | 2.0 | 0.00 | 0.00 | 0.00 | 52 | 1040.3 |
| 20260502221028 | 54 | 265 | 0.0 | 2.0 | 0.00 | 0.00 | 0.00 | 50 | 1040.3 |
| 20260502220527 | 54 | 84 | 1.0 | 7.0 | 0.00 | 0.00 | 0.00 | 51 | 1040.2 |
| 20260502220028 | 54 | 327 | 1.0 | 7.0 | 0.00 | 0.00 | 0.00 | 50 | 1040.2 |
| 20260502215528 | 55 | 249 | 1.0 | 7.0 | 0.00 | 0.00 | 0.00 | 50 | 1040.2 |
| 20260502215245 | 55 | 226 | 1.0 | 3.0 | 0.00 | 0.00 | 0.00 | 51 | 1040.3 |
| 20260502214748 | 55 | 250 | 1.0 | 5.0 | 0.00 | 0.00 | 0.00 | 50 | 1040.3 |
| 20260502214031 | 55 | 246 | 2.0 | 7.0 | 0.00 | 0.00 | 0.00 | 51 | 1040.3 |
| 20260502213526 | 55 | 289 | 2.0 | 7.0 | 0.00 | 0.00 | 0.00 | 51 | 1040.3 |
| 20260502213013 | 55 | 268 | 3.0 | 6.0 | 0.00 | 0.00 | 0.00 | 50 | 1040.3 |
| 20260502212511 | 55 | 273 | 2.0 | 6.0 | 0.00 | 0.00 | 0.00 | 52 | 1040.3 |
| 20260502212230 | 55 | 311 | 3.0 | 8.0 | 0.00 | 0.00 | 0.00 | 52 | 1040.3 |
| 20260502211512 | 55 | 244 | 3.0 | 9.0 | 0.00 | 0.00 | 0.00 | 49 | 1040.3 |
| 20260502211011 | 56 | 263 | 2.0 | 9.0 | 0.00 | 0.00 | 0.00 | 50 | 1040.3 |
| 20260502210511 | 56 | 209 | 1.0 | 5.0 | 0.00 | 0.00 | 0.00 | 52 | 1040.2 |
| 20260502210011 | 56 | 252 | 2.0 | 6.0 | 0.00 | 0.00 | 0.00 | 49 | 1040.2 |
| 20260502205512 | 56 | 239 | 3.0 | 15.0 | 0.00 | 0.00 | 0.00 | 49 | 1040.2 |
| 20260502205012 | 57 | 321 | 4.0 | 15.0 | 0.00 | 0.00 | 0.00 | 47 | 1040.1 |
| 20260502204728 | 57 | 244 | 3.0 | 8.0 | 0.00 | 0.00 | 0.00 | 51 | 1040.1 |
| 20260502204002 | 56 | 251 | 3.0 | 7.0 | 0.00 | 0.00 | 0.00 | 50 | 1040.1 |
| 20260502203719 | 55 | 258 | 2.0 | 7.0 | 0.00 | 0.00 | 0.00 | 52 | 1040.2 |
| 20260502202950 | 55 | 93 | 1.0 | 6.0 | 0.00 | 0.00 | 0.00 | 50 | 1040.2 |
| 20260502202444 | 55 | 92 | 2.0 | 5.0 | 0.00 | 0.00 | 0.00 | 51 | 1040.2 |
| 20260502201937 | 56 | 114 | 2.0 | 5.0 | 0.00 | 0.00 | 0.00 | 51 | 1040.2 |
| 20260502201426 | 56 | 269 | 1.0 | 7.0 | 0.00 | 0.00 | 0.00 | 50 | 1040.2 |
| 20260502200925 | 56 | 294 | 2.0 | 6.0 | 0.00 | 0.00 | 0.00 | 51 | 1040.2 |
| 20260502200419 | 56 | 236 | 2.0 | 8.0 | 0.00 | 0.00 | 0.00 | 51 | 1040.3 |
| 20260502195912 | 57 | 263 | 2.0 | 6.0 | 0.00 | 0.00 | 0.00 | 50 | 1040.3 |
| 20260502195407 | 58 | 228 | 2.0 | 8.0 | 0.00 | 0.00 | 0.00 | 49 | 1040.3 |
| 20260502194901 | 57 | 259 | 2.0 | 8.0 | 0.00 | 0.00 | 0.00 | 51 | 1040.4 |
| 20260502194355 | 56 | 234 | 2.0 | 7.0 | 0.00 | 0.00 | 0.00 | 50 | 1040.4 |
| 20260502193844 | 56 | 267 | 2.0 | 7.0 | 0.00 | 0.00 | 0.00 | 51 | 1040.4 |
| 20260502193343 | 56 | 219 | 4.0 | 11.0 | 0.00 | 0.00 | 0.00 | 50 | 1040.8 |
| 20260502192838 | 57 | 36 | 4.0 | 11.0 | 0.00 | 0.00 | 0.00 | 48 | 1040.8 |
| 20260502192331 | 58 | 298 | 3.0 | 10.0 | 0.00 | 0.00 | 0.00 | 48 | 1040.8 |
| 20260502191825 | 57 | 253 | 4.0 | 10.0 | 0.00 | 0.00 | 0.00 | 51 | 1040.9 |
| 20260502191315 | 57 | 140 | 4.0 | 9.0 | 0.00 | 0.00 | 0.00 | 50 | 1040.9 |
| 20260502190813 | 56 | 248 | 3.0 | 8.0 | 0.00 | 0.00 | 0.00 | 55 | 1040.9 |
| 20260502190312 | 55 | 256 | 3.0 | 8.0 | 0.00 | 0.00 | 0.00 | 51 | 1041.2 |
| 20260502185813 | 56 | 238 | 3.0 | 10.0 | 0.00 | 0.00 | 0.00 | 50 | 1041.2 |
| 20260502185313 | 56 | 266 | 3.0 | 10.0 | 0.00 | 0.00 | 0.00 | 50 | 1041.2 |
| 20260502184810 | 56 | 153 | 3.0 | 7.0 | 0.00 | 0.00 | 0.00 | 51 | 1041.3 |
| 20260502184309 | 55 | 242 | 2.0 | 7.0 | 0.00 | 0.00 | 0.00 | 53 | 1041.3 |
| 20260502183812 | 55 | 144 | 2.0 | 8.0 | 0.00 | 0.00 | 0.00 | 51 | 1041.3 |
| 20260502183310 | 55 | 102 | 2.0 | 8.0 | 0.00 | 0.00 | 0.00 | 51 | 1041.5 |
| 20260502182809 | 56 | 273 | 1.0 | 7.0 | 0.00 | 0.00 | 0.00 | 51 | 1041.5 |
| 20260502182309 | 56 | 182 | 2.0 | 7.0 | 0.00 | 0.00 | 0.00 | 54 | 1041.5 |
| 20260502182034 | 55 | 131 | 1.0 | 6.0 | 0.00 | 0.00 | 0.00 | 52 | 1041.6 |
| 20260502181307 | 55 | 300 | 1.0 | 4.0 | 0.00 | 0.00 | 0.00 | 52 | 1041.6 |
| 20260502181025 | 55 | 296 | 2.0 | 5.0 | 0.00 | 0.00 | 0.00 | 56 | 1041.6 |
| 20260502180755 | 55 | 150 | 2.0 | 5.0 | 0.00 | 0.00 | 0.00 | 55 | 1041.8 |
| 20260502170235 | 54 | 268 | 1.0 | 5.0 | 0.00 | 0.00 | 0.00 | 56 | 1042.1 |
| 20260502164235 | 53 | 162 | 1.0 | 5.0 | 0.00 | 0.00 | 0.00 | 57 | 1042.1 |
| 20260502163734 | 54 | 276 | 1.0 | 5.0 | 0.00 | 0.00 | 0.00 | 55 | 1042.1 |
| 20260502163234 | 53 | 142 | 1.0 | 4.0 | 0.00 | 0.00 | 0.00 | 61 | 1042.3 |
| 20260502162953 | 53 | 85 | 1.0 | 5.0 | 0.00 | 0.00 | 0.00 | 57 | 1042.3 |
| 20260502162235 | 53 | 355 | 2.0 | 8.0 | 0.00 | 0.00 | 0.00 | 56 | 1042.3 |
| 20260502161951 | 53 | 251 | 3.0 | 9.0 | 0.00 | 0.00 | 0.00 | 56 | 1042.3 |
| 20260502161227 | 53 | 240 | 2.0 | 7.0 | 0.00 | 0.00 | 0.00 | 59 | 1042.3 |
| 20260502160715 | 53 | 215 | 2.0 | 8.0 | 0.00 | 0.00 | 0.00 | 55 | 1042.3 |
| 20260502160431 | 53 | 284 | 1.0 | 8.0 | 0.00 | 0.00 | 0.00 | 56 | 1042.5 |
| 20260502152126 | 53 | 138 | 2.0 | 8.0 | 0.00 | 0.00 | 0.00 | 59 | 1042.8 |
| 20260502151621 | 52 | 71 | 2.0 | 8.0 | 0.00 | 0.00 | 0.00 | 58 | 1042.8 |
| 20260502151110 | 52 | 244 | 2.0 | 11.0 | 0.00 | 0.00 | 0.00 | 61 | 1042.8 |
| 20260502150608 | 51 | 145 | 3.0 | 11.0 | 0.00 | 0.00 | 0.00 | 62 | 1042.8 |
| 20260502150553 | 51 | 239 | 3.0 | 13.0 | 0.00 | 0.00 | 0.00 | 61 | 1042.8 |
| 20260502130611 | 48 | 144 | 2.0 | 7.0 | 0.00 | 0.00 | 0.00 | 71 | 1042.7 |
| 20260502123810 | 47 | 269 | 3.0 | 9.0 | 0.00 | 0.00 | 0.00 | 72 | 1042.6 |
| 20260502123304 | 47 | 216 | 3.0 | 10.0 | 0.00 | 0.00 | 0.00 | 73 | 1042.7 |
| 20260502123027 | 47 | 215 | 3.0 | 11.0 | 0.00 | 0.00 | 0.00 | 74 | 1042.7 |
| 20260502122256 | 46 | 248 | 4.0 | 12.0 | 0.00 | 0.00 | 0.00 | 75 | 1042.7 |
| 20260502121750 | 46 | 256 | 4.0 | 14.0 | 0.00 | 0.00 | 0.00 | 74 | 1042.4 |
| 20260502121244 | 46 | 240 | 4.0 | 14.0 | 0.00 | 0.00 | 0.00 | 75 | 1042.4 |
| 20260502120738 | 45 | 251 | 3.0 | 8.0 | 0.00 | 0.00 | 0.00 | 76 | 1042.4 |
| 20260502120232 | 45 | 219 | 2.0 | 7.0 | 0.00 | 0.00 | 0.00 | 77 | 1042.6 |
| 20260502115722 | 45 | 234 | 2.0 | 7.0 | 0.00 | 0.00 | 0.00 | 77 | 1042.6 |
| 20260502115443 | 45 | 236 | 3.0 | 9.0 | 0.00 | 0.00 | 0.00 | 77 | 1042.6 |
| 20260502114710 | 44 | 238 | 2.0 | 9.0 | 0.00 | 0.00 | 0.00 | 78 | 1042.8 |
| 20260502114208 | 44 | 229 | 2.0 | 7.0 | 0.00 | 0.00 | 0.00 | 79 | 1042.8 |
| 20260502113928 | 44 | 261 | 1.0 | 4.0 | 0.00 | 0.00 | 0.00 | 80 | 1042.8 |
| 20260502113157 | 43 | 279 | 1.0 | 4.0 | 0.00 | 0.00 | 0.00 | 80 | 1042.9 |
| 20260502112650 | 43 | 242 | 0.0 | 2.0 | 0.00 | 0.00 | 0.00 | 81 | 1042.9 |
| 20260502112412 | 43 | 181 | 0.0 | 2.0 | 0.00 | 0.00 | 0.00 | 81 | 1042.9 |
| 20260502111638 | 43 | 288 | 0.0 | 1.0 | 0.00 | 0.00 | 0.00 | 82 | 1042.9 |
| 20260502111401 | 42 | 277 | 0.0 | 1.0 | 0.00 | 0.00 | 0.00 | 82 | 1042.9 |
| 20260502110850 | 42 | 242 | 0.0 | 1.0 | 0.00 | 0.00 | 0.00 | 82 | 1042.9 |
| 20260502110121 | 42 | 337 | 0.0 | 1.0 | 0.00 | 0.00 | 0.00 | 82 | 1042.8 |
| 20260502105614 | 42 | 338 | 0.0 | 1.0 | 0.00 | 0.00 | 0.00 | 82 | 1042.8 |
| 20260502105109 | 42 | 269 | 0.0 | 1.0 | 0.00 | 0.00 | 0.00 | 82 | 1042.8 |
| 20260502104558 | 42 | 248 | 0.0 | 2.0 | 0.00 | 0.00 | 0.00 | 82 | 1042.8 |
| 20260502104057 | 42 | 268 | 0.0 | 4.0 | 0.00 | 0.00 | 0.00 | 82 | 1042.8 |
| 20260502103550 | 42 | 250 | 0.0 | 4.0 | 0.00 | 0.00 | 0.00 | 82 | 1042.6 |
| 20260502103045 | 42 | 234 | 1.0 | 3.0 | 0.00 | 0.00 | 0.00 | 82 | 1042.6 |
| 20260502102538 | 42 | 240 | 0.0 | 3.0 | 0.00 | 0.00 | 0.00 | 82 | 1042.6 |
| 20260502102033 | 42 | 252 | 0.0 | 2.0 | 0.00 | 0.00 | 0.00 | 82 | 1042.8 |
| 20260502101526 | 42 | 248 | 0.0 | 2.0 | 0.00 | 0.00 | 0.00 | 81 | 1042.8 |
| 20260502101024 | 42 | 242 | 0.0 | 2.0 | 0.00 | 0.00 | 0.00 | 81 | 1042.8 |
| 20260502100524 | 43 | 199 | 0.0 | 4.0 | 0.00 | 0.00 | 0.00 | 80 | 1042.4 |
| 20260502091520 | 44 | 269 | 2.0 | 6.0 | 0.00 | 0.00 | 0.00 | 79 | 1042.2 |
| 20260502091023 | 44 | 238 | 2.0 | 7.0 | 0.00 | 0.00 | 0.00 | 79 | 1042.2 |
| 20260502090521 | 44 | 263 | 2.0 | 7.0 | 0.00 | 0.00 | 0.00 | 79 | 1042.1 |
| 20260502071441 | 47 | 258 | 2.0 | 8.0 | 0.00 | 0.00 | 0.00 | 76 | 1041.8 |
| 20260502070933 | 47 | 221 | 2.0 | 8.0 | 0.00 | 0.00 | 0.00 | 76 | 1041.8 |
| 20260502070426 | 47 | 261 | 2.0 | 8.0 | 0.00 | 0.00 | 0.00 | 76 | 1041.7 |
| 20260502065921 | 47 | 244 | 2.0 | 7.0 | 0.00 | 0.00 | 0.00 | 76 | 1041.7 |
| 20260502065415 | 47 | 220 | 1.0 | 7.0 | 0.00 | 0.00 | 0.00 | 75 | 1041.7 |
| 20260502064904 | 47 | 272 | 2.0 | 6.0 | 0.00 | 0.00 | 0.00 | 75 | 1041.6 |
| 20260502064403 | 48 | 211 | 2.0 | 5.0 | 0.00 | 0.00 | 0.00 | 74 | 1041.6 |
| 20260502063857 | 48 | 300 | 2.0 | 8.0 | 0.00 | 0.00 | 0.00 | 74 | 1041.6 |
| 20260502063614 | 48 | 257 | 1.0 | 8.0 | 0.00 | 0.00 | 0.00 | 74 | 1041.7 |
| 20260502062936 | 48 | 250 | 1.0 | 4.0 | 0.00 | 0.00 | 0.00 | 75 | 1041.7 |
| 20260502061834 | 48 | 223 | 2.0 | 8.0 | 0.00 | 0.00 | 0.00 | 74 | 1041.8 |
| 20260502061809 | 48 | 110 | 2.0 | 8.0 | 0.00 | 0.00 | 0.00 | 75 | 1041.8 |
| 20260502060822 | 48 | 242 | 1.0 | 7.0 | 0.00 | 0.00 | 0.00 | 77 | 1041.8 |
| 20260502060315 | 48 | 261 | 0.0 | 4.0 | 0.00 | 0.00 | 0.00 | 80 | 1041.8 |
| 20260502055810 | 48 | 270 | 0.0 | 4.0 | 0.00 | 0.00 | 0.00 | 80 | 1041.8 |
| 20260502055533 | 48 | 250 | 0.0 | 1.0 | 0.00 | 0.00 | 0.00 | 80 | 1041.8 |
| 20260502054758 | 48 | 219 | 0.0 | 1.0 | 0.00 | 0.00 | 0.00 | 80 | 1041.5 |
| 20260502054520 | 49 | 219 | 0.0 | 1.0 | 0.00 | 0.00 | 0.00 | 79 | 1041.5 |
| 20260502053737 | 49 | 218 | 0.0 | 1.0 | 0.00 | 0.00 | 0.00 | 78 | 1041.5 |
| 20260502053239 | 49 | 249 | 0.0 | 1.0 | 0.00 | 0.00 | 0.00 | 78 | 1041.5 |
| 20260502052733 | 50 | 80 | 0.0 | 1.0 | 0.00 | 0.00 | 0.00 | 78 | 1041.5 |
| 20260502052227 | 50 | 288 | 0.0 | 3.0 | 0.00 | 0.00 | 0.00 | 78 | 1041.5 |
| 20260502051721 | 50 | 288 | 0.0 | 3.0 | 0.00 | 0.00 | 0.00 | 77 | 1041.5 |
| 20260502051215 | 51 | 173 | 0.0 | 1.0 | 0.00 | 0.00 | 0.00 | 77 | 1041.5 |
| 20260502050927 | 51 | 229 | 1.0 | 2.0 | 0.00 | 0.00 | 0.00 | 76 | 1041.5 |
| 20260502050157 | 51 | 244 | 2.0 | 8.0 | 0.00 | 0.00 | 0.00 | 75 | 1041.3 |
| 20260502045656 | 51 | 238 | 3.0 | 9.0 | 0.00 | 0.00 | 0.00 | 75 | 1041.3 |
| 20260502045237 | 51 | 248 | 4.0 | 10.0 | 0.00 | 0.00 | 0.00 | 75 | 1041.3 |
| 20260502044138 | 52 | 252 | 3.0 | 10.0 | 0.00 | 0.00 | 0.00 | 76 | 1041.3 |
| 20260502043633 | 52 | 288 | 4.0 | 12.0 | 0.00 | 0.00 | 0.00 | 75 | 1041.3 |
| 20260502043128 | 52 | 293 | 4.0 | 12.0 | 0.00 | 0.00 | 0.00 | 75 | 1041.1 |
| 20260502042616 | 52 | 254 | 3.0 | 8.0 | 0.00 | 0.00 | 0.00 | 74 | 1041.1 |
| 20260502042114 | 52 | 251 | 3.0 | 7.0 | 0.00 | 0.00 | 0.00 | 74 | 1040.8 |
| 20260502041830 | 52 | 256 | 2.0 | 7.0 | 0.00 | 0.00 | 0.00 | 74 | 1040.8 |
| 20260502041103 | 52 | 257 | 2.0 | 10.0 | 0.00 | 0.00 | 0.00 | 74 | 1040.8 |
| 20260502040557 | 52 | 260 | 3.0 | 10.0 | 0.00 | 0.00 | 0.00 | 73 | 1040.8 |
| 20260502040050 | 53 | 288 | 3.0 | 11.0 | 0.00 | 0.00 | 0.00 | 73 | 1040.8 |
| 20260502035544 | 53 | 238 | 3.0 | 11.0 | 0.00 | 0.00 | 0.00 | 73 | 1040.8 |
| 20260502035035 | 53 | 246 | 3.0 | 10.0 | 0.00 | 0.00 | 0.00 | 74 | 1040.8 |
| 20260502034532 | 53 | 265 | 2.0 | 11.0 | 0.00 | 0.00 | 0.00 | 73 | 1040.8 |
| 20260502034026 | 53 | 240 | 2.0 | 11.0 | 0.00 | 0.00 | 0.00 | 73 | 1040.8 |
| 20260502033521 | 53 | 250 | 1.0 | 4.0 | 0.00 | 0.00 | 0.00 | 73 | 1040.8 |
| 20260502033014 | 53 | 257 | 2.0 | 7.0 | 0.00 | 0.00 | 0.00 | 72 | 1040.8 |
| 20260502032508 | 53 | 261 | 2.0 | 7.0 | 0.00 | 0.00 | 0.00 | 72 | 1040.8 |
| 20260502032224 | 53 | 263 | 2.0 | 5.0 | 0.00 | 0.00 | 0.00 | 73 | 1040.7 |
| 20260502031454 | 53 | 255 | 2.0 | 6.0 | 0.00 | 0.00 | 0.00 | 72 | 1040.7 |
| 20260502030950 | 53 | 261 | 2.0 | 6.0 | 0.00 | 0.00 | 0.00 | 73 | 1040.7 |
| 20260502030446 | 53 | 273 | 3.0 | 10.0 | 0.00 | 0.00 | 0.00 | 73 | 1040.8 |
| 20260502025938 | 53 | 306 | 3.0 | 10.0 | 0.00 | 0.00 | 0.00 | 73 | 1040.8 |
| 20260502025434 | 53 | 256 | 3.0 | 8.0 | 0.00 | 0.00 | 0.00 | 73 | 1040.8 |
| 20260502025149 | 53 | 269 | 2.0 | 7.0 | 0.00 | 0.00 | 0.00 | 74 | 1040.6 |
| 20260502024421 | 53 | 243 | 2.0 | 6.0 | 0.00 | 0.00 | 0.00 | 74 | 1040.6 |
| 20260502023911 | 53 | 306 | 2.0 | 6.0 | 0.00 | 0.00 | 0.00 | 75 | 1040.6 |
| 20260502023408 | 53 | 296 | 2.0 | 8.0 | 0.00 | 0.00 | 0.00 | 75 | 1040.8 |
| 20260502022902 | 53 | 272 | 2.0 | 8.0 | 0.00 | 0.00 | 0.00 | 75 | 1040.8 |
| 20260502022356 | 53 | 263 | 2.0 | 5.0 | 0.00 | 0.00 | 0.00 | 75 | 1040.8 |
| 20260502021850 | 53 | 251 | 2.0 | 5.0 | 0.00 | 0.00 | 0.00 | 74 | 1040.6 |
| 20260502021345 | 54 | 227 | 2.0 | 6.0 | 0.00 | 0.00 | 0.00 | 74 | 1040.6 |
| 20260502020838 | 54 | 274 | 3.0 | 7.0 | 0.00 | 0.00 | 0.00 | 72 | 1040.6 |
| 20260502020328 | 55 | 256 | 2.0 | 7.0 | 0.00 | 0.00 | 0.00 | 70 | 1040.6 |
| 20260502015826 | 55 | 259 | 2.0 | 7.0 | 0.00 | 0.00 | 0.00 | 68 | 1040.6 |
| 20260502015321 | 56 | 274 | 3.0 | 12.0 | 0.00 | 0.00 | 0.00 | 67 | 1040.6 |
| 20260502014814 | 56 | 229 | 3.0 | 11.0 | 0.00 | 0.00 | 0.00 | 66 | 1040.3 |
| 20260502014308 | 56 | 265 | 3.0 | 11.0 | 0.00 | 0.00 | 0.00 | 67 | 1040.3 |
| 20260502013804 | 56 | 275 | 2.0 | 8.0 | 0.00 | 0.00 | 0.00 | 68 | 1040.3 |